Weather History for Homestead AFB, FL

Change the Weather History Date:

Wednesday, December 5, 2012

  Actual Average Record
Temperature  
Mean Temperature 73 °F -  
Max Temperature 77 °F 78 °F 87 °F (1941)
Min Temperature 66 °F 59 °F 39 °F (1939)
Cooling Degree Days 8    
Growing Degree Days 23 (Base 50)    
Moisture  
Dew Point 63 °F    
Average Humidity 73    
Maximum Humidity 87    
Minimum Humidity 57    
Precipitation  
Precipitation 0.00 in - - ()
Sea Level Pressure  
Sea Level Pressure 30.09 in    
Wind  
Wind Speed 5 mph (East)    
Max Wind Speed 12 mph    
Max Gust Speed -    
Visibility 10 miles    
Events      
Averages and records for this station are not official NWS values.
T = Trace of Precipitation, MM = Missing Value Source: NWS Daily Summary

Daily Weather History Graph

Daily Weather History Graph

Search for Another Location

Airport:

Trip Planner

Search our weather history database for the weather conditions in past years. The results will help you decide how hot, cold, wet, or windy it might be!

Date:

Astronomy

Dec. 05, 2012 Rise Set
Actual Time 6:53 AM EST 5:31 PM EST
Civil Twilight 6:28 AM EST 5:55 PM EST
Nautical Twilight 6:00 AM EST 6:24 PM EST
Astronomical Twilight 5:32 AM EST 6:52 PM EST
Moon 11:49 PM EST (12/5) 11:43 AM EST (12/5)
Length of Visible Light 11h 27m
Length of Day
10h 37m
Waning Gibbous, 60% of the Moon is Illuminated
Dec 5
Waning Gibbous
Dec 6
Last Quarter
Dec 13
New
Dec 20
First Quarter
Dec 28
Full

Hourly Weather History & Observations

Time (EST) Temp. Dew Point Humidity Pressure Visibility Wind Dir Wind Speed Gust Speed Precip Events Conditions
12:55 AM 72.3 °F 62.2 °F 70% 30.15 in 10.0 mi East 6.9 mph - N/A   Overcast
1:55 AM 71.6 °F 62.8 °F 74% 30.15 in 10.0 mi East 5.8 mph - N/A   Mostly Cloudy
2:55 AM 71.6 °F 62.8 °F 74% 30.13 in 10.0 mi East 5.8 mph - N/A   Mostly Cloudy
3:55 AM 71.6 °F 63.1 °F 75% 30.12 in 10.0 mi East 4.6 mph - N/A   Mostly Cloudy
4:55 AM 71.2 °F 63.5 °F 76% 30.11 in 10.0 mi Calm Calm - N/A   Mostly Cloudy
5:55 AM 69.4 °F 64.6 °F 84% 30.11 in 10.0 mi Calm Calm - N/A   Mostly Cloudy
6:55 AM 69.1 °F 64.8 °F 86% 30.12 in 10.0 mi Calm Calm - N/A   Mostly Cloudy
7:55 AM 72.1 °F 62.1 °F 70% 30.14 in 10.0 mi East 4.6 mph - N/A   Clear
9:55 AM 75.9 °F 62.4 °F 63% 30.16 in 10.0 mi East 9.2 mph - N/A   Partly Cloudy
10:55 AM 76.3 °F 61.9 °F 61% 30.15 in 10.0 mi East 11.5 mph - N/A   Clear
11:55 AM 76.1 °F 61.2 °F 60% 30.13 in 10.0 mi East 6.9 mph - N/A   Clear
12:55 PM 77.9 °F 61.3 °F 57% 30.10 in 10.0 mi East 9.2 mph - N/A   Clear
1:55 PM 76.8 °F 62.2 °F 61% 30.07 in 10.0 mi East 6.9 mph - N/A   Clear
2:55 PM 76.1 °F 62.1 °F 62% 30.06 in 10.0 mi East 4.6 mph - N/A   Clear
3:55 PM 75.7 °F 63.5 °F 66% 30.05 in 10.0 mi East 5.8 mph - N/A   Clear
4:55 PM 73.8 °F 64.2 °F 72% 30.05 in 10.0 mi East 4.6 mph - N/A   Clear
5:55 PM 70.9 °F 65.3 °F 82% 30.05 in 10.0 mi ENE 4.6 mph - N/A   Partly Cloudy
6:55 PM 69.8 °F 64.2 °F 82% 30.04 in 10.0 mi ENE 4.6 mph - N/A   Clear
7:55 PM 70.0 °F 63.3 °F 79% 30.04 in 10.0 mi East 6.9 mph - N/A   Partly Cloudy
8:55 PM 70.2 °F 63.7 °F 80% 30.05 in 10.0 mi Calm Calm - N/A   Clear
9:55 PM 70.0 °F 64.0 °F 81% 30.04 in 10.0 mi ENE 3.5 mph - N/A   Clear
10:55 PM 69.3 °F 64.0 °F 83% 30.04 in 10.0 mi Calm Calm - N/A   Clear
11:55 PM 66.7 °F 62.8 °F 87% 30.03 in 10.0 mi Calm Calm - N/A   Partly Cloudy